EW7061 Weather Reports


time (UTC)temp
F
wind
direction
speed
knots
gust
knots
rain 1hr
in
rain 24hr
in
rain mn
in
humidity
%
barometer
mb
20260507080903 54 226 2.6 11.3 0.00 0.25 0.00 92 1006.0
20260507080217 54 241 2.6 5.2 0.00 0.25 0.00 92 1006.0
20260507075403 54 235 1.7 6.1 0.00 0.25 0.00 92 1006.1
20260507074503 54 231 3.5 8.7 0.00 0.25 0.00 92 1005.9
20260507073817 54 237 2.6 8.7 0.00 0.25 0.00 92 1006.2
20260507072703 54 217 2.6 7.0 0.00 0.25 0.00 92 1006.2
20260507072018 54 232 3.5 7.0 0.00 0.25 0.00 92 1006.2
20260507071117 54 235 3.5 8.7 0.00 0.25 0.00 92 1006.6
20260507070004 55 236 3.5 8.7 0.00 0.25 0.00 92 1006.4
20260507065618 55 237 3.5 8.7 0.00 0.25 0.00 92 1006.3
20260507064717 55 242 3.5 7.8 0.00 0.25 0.00 92 1006.2
20260507063603 55 223 3.5 7.0 0.00 0.25 0.00 92 1006.6
20260507062918 55 230 2.6 7.0 0.00 0.25 0.00 92 1006.6
20260507061803 56 232 2.6 7.0 0.00 0.25 0.00 92 1006.6
20260507060903 56 236 2.6 7.8 0.00 0.25 0.00 92 1006.7
20260507060003 56 235 2.6 7.0 0.00 0.25 0.00 92 1006.6
20260507055403 56 226 3.5 7.8 0.00 0.25 0.00 92 1006.7
20260507054717 56 225 3.5 8.7 0.00 0.25 0.00 92 1007.0
20260507053603 56 226 3.5 10.4 0.00 0.25 0.00 92 1007.1
20260507053133 56 227 4.3 10.4 0.00 0.25 0.00 92 1007.2
20260507051803 56 232 4.3 11.3 0.00 0.25 0.00 92 1007.5
20260507050903 56 228 3.5 8.7 0.00 0.25 0.00 92 1007.5
20260507050003 56 236 5.2 13.9 0.00 0.25 0.00 92 1007.4
20260507045832 56 237 5.2 13.9 0.00 0.25 0.00 92 1007.5
20260507044503 56 220 5.2 11.3 0.00 0.25 0.00 92 1007.4
20260507043603 56 225 4.3 14.8 0.00 0.25 0.00 92 1007.4
20260507042703 56 221 4.3 13.0 0.00 0.25 0.00 92 1007.6
20260507041803 56 220 5.2 14.8 0.00 0.25 0.00 92 1007.8
20260507040903 56 230 4.3 9.6 0.00 0.25 0.00 92 1007.7
20260507040003 56 220 5.2 12.2 0.00 0.25 0.00 92 1007.6
20260507035403 56 219 5.2 12.2 0.00 0.25 0.25 92 1007.7
20260507034503 56 221 5.2 13.0 0.00 0.25 0.25 92 1008.0
20260507033603 56 223 5.2 13.0 0.00 0.25 0.25 92 1008.0
20260507033132 56 232 5.2 13.0 0.00 0.25 0.25 92 1008.0
20260507031803 56 219 5.2 12.2 0.00 0.25 0.25 92 1007.7
20260507031117 56 221 5.2 13.0 0.00 0.25 0.25 92 1007.6
20260507030217 56 221 5.2 11.3 0.00 0.25 0.25 92 1007.5
20260507025403 56 222 6.1 12.2 0.00 0.25 0.25 92 1007.7
20260507024503 56 217 6.1 12.2 0.00 0.25 0.25 92 1008.1
20260507023603 56 222 5.2 12.2 0.00 0.25 0.25 92 1008.3
20260507022703 56 218 6.1 13.9 0.00 0.25 0.25 92 1008.5
20260507021803 57 217 7.0 15.6 0.00 0.25 0.25 92 1008.5
20260507021117 57 226 7.0 13.9 0.00 0.25 0.25 92 1008.4
20260507020216 56 226 6.1 13.9 0.01 0.25 0.25 92 1008.4
20260507015403 56 219 7.0 13.9 0.01 0.25 0.25 92 1008.6
20260507014503 56 211 5.2 12.2 0.02 0.25 0.25 92 1008.8
20260507014032 56 211 5.2 10.4 0.04 0.25 0.25 92 1008.8
20260507012918 56 213 6.1 14.8 0.10 0.25 0.25 92 1008.6
20260507011803 57 220 5.2 13.0 0.12 0.25 0.25 92 1008.8
20260507010903 57 222 6.1 16.5 0.13 0.24 0.24 92 1008.8
20260507010003 57 213 7.0 19.1 0.13 0.24 0.24 92 1008.9
20260507005403 56 212 6.1 19.1 0.14 0.24 0.24 92 1008.8
20260507004503 56 212 6.1 12.2 0.14 0.23 0.23 92 1009.0
20260507003603 56 210 5.2 11.3 0.09 0.17 0.18 92 1008.6
20260507002703 56 210 5.2 15.6 0.07 0.14 0.14 92 1008.5
20260507002017 56 203 5.2 15.6 0.08 0.13 0.13 92 1008.6
20260507000903 56 198 5.2 10.4 0.09 0.11 0.11 91 1008.7
20260507000003 56 188 4.3 12.2 0.10 0.11 0.11 91 1008.7
20260506235832 56 192 4.3 12.2 0.09 0.10 0.10 91 1008.9
20260506234503 56 205 5.2 11.3 0.09 0.09 0.09 91 1009.2
20260506233818 56 198 5.2 11.3 0.08 0.08 0.08 91 1009.2
20260506232917 56 202 6.1 12.2 0.07 0.07 0.07 90 1009.3
20260506231803 57 209 5.2 13.0 0.05 0.05 0.05 90 1009.6
20260506230903 57 199 6.1 12.2 0.02 0.02 0.02 90 1009.3
20260506230003 57 199 6.1 13.0 0.01 0.01 0.01 89 1009.5
20260506225832 57 200 6.1 13.0 0.01 0.01 0.01 89 1009.4
20260506224503 58 192 7.0 13.9 0.00 0.00 0.00 88 1009.4
20260506223603 58 194 7.0 18.2 0.00 0.00 0.00 88 1009.3
20260506222917 58 189 6.1 11.3 0.00 0.00 0.00 88 1009.3
20260506221803 58 197 6.1 13.9 0.00 0.00 0.00 88 1009.4
20260506220903 58 188 6.1 13.9 0.00 0.00 0.00 87 1009.6
20260506220003 58 194 5.2 13.0 0.00 0.00 0.00 87 1009.7
20260506215617 58 194 5.2 16.5 0.00 0.00 0.00 87 1009.7
20260506214503 58 189 6.1 14.8 0.00 0.00 0.00 87 1009.6
20260506213817 58 192 7.0 13.9 0.00 0.00 0.00 87 1009.8
20260506212703 58 195 7.8 13.0 0.00 0.00 0.00 86 1009.7
20260506211803 58 192 7.0 14.8 0.00 0.00 0.00 87 1009.8
20260506211332 58 194 7.0 13.9 0.00 0.00 0.00 86 1009.8
20260506210217 58 192 7.0 16.5 0.00 0.00 0.00 86 1009.9
20260506205403 59 187 5.2 13.9 0.00 0.00 0.00 86 1010.0
20260506204717 59 185 5.2 11.3 0.00 0.00 0.00 85 1010.1
20260506204032 60 188 5.2 13.0 0.00 0.00 0.00 84 1010.2
20260506202916 60 195 6.1 13.9 0.00 0.00 0.00 84 1010.3
20260506201803 59 189 6.1 18.2 0.00 0.00 0.00 85 1010.3
20260506201117 60 186 6.1 17.4 0.00 0.00 0.00 84 1010.3
20260506200003 60 189 5.2 12.2 0.00 0.00 0.00 84 1010.5
20260506195403 60 188 6.1 12.2 0.00 0.00 0.00 85 1010.5
20260506194503 59 192 6.1 13.9 0.00 0.00 0.00 85 1010.4
20260506193603 59 189 7.0 14.8 0.00 0.00 0.00 85 1010.5
20260506192703 60 187 6.1 14.8 0.00 0.00 0.00 84 1010.4
20260506191803 60 190 6.1 15.6 0.00 0.00 0.00 84 1010.6
20260506190903 60 193 6.1 13.9 0.00 0.00 0.00 84 1010.7
20260506190003 60 189 5.2 13.9 0.00 0.00 0.00 84 1011.0
20260506185403 60 188 5.2 11.3 0.00 0.00 0.00 83 1011.2
20260506184503 60 204 5.2 12.2 0.00 0.00 0.00 83 1011.4
20260506183603 60 202 6.1 13.9 0.00 0.00 0.00 83 1011.5
20260506182703 61 199 6.1 13.0 0.00 0.00 0.00 82 1011.8
20260506181803 62 200 7.0 15.6 0.00 0.00 0.00 79 1012.0
20260506180903 64 202 6.1 13.0 0.00 0.00 0.00 78 1012.1
20260506180004 63 198 7.0 13.9 0.00 0.00 0.00 81 1012.0
20260506175617 62 199 7.0 12.2 0.00 0.00 0.00 81 1012.1
20260506174503 63 201 6.1 13.0 0.00 0.00 0.00 80 1012.0
20260506173603 63 206 6.1 15.6 0.00 0.00 0.00 81 1012.1
20260506172917 62 207 7.0 15.6 0.00 0.00 0.00 82 1012.2
20260506172016 62 208 6.1 16.5 0.00 0.00 0.00 82 1012.4
20260506170903 62 203 7.0 14.8 0.00 0.00 0.00 82 1012.6
20260506170003 62 202 6.1 13.0 0.00 0.00 0.00 82 1012.7
20260506165403 62 203 6.1 14.8 0.00 0.00 0.00 82 1012.8
20260506164503 61 200 7.0 16.5 0.00 0.00 0.00 83 1013.0
20260506163603 62 202 6.1 12.2 0.00 0.00 0.00 81 1013.2
20260506162703 63 198 5.2 13.9 0.00 0.00 0.00 80 1013.2
20260506161803 62 204 6.1 15.6 0.00 0.00 0.00 81 1013.5
20260506160903 62 196 6.1 15.6 0.00 0.00 0.00 81 1013.5
20260506160003 62 212 6.1 14.8 0.00 0.00 0.00 80 1013.6
20260506155831 63 213 6.1 14.8 0.00 0.00 0.00 80 1013.7
20260506154718 63 209 7.0 14.8 0.00 0.00 0.00 80 1014.0
20260506153603 63 205 7.8 20.0 0.00 0.00 0.00 80 1013.9
20260506152703 62 208 7.0 17.4 0.00 0.00 0.00 81 1013.9
20260506151803 62 212 6.1 13.9 0.00 0.00 0.00 82 1013.8
20260506150903 61 203 6.1 15.6 0.00 0.00 0.00 83 1013.7
20260506150003 62 191 5.2 12.2 0.00 0.00 0.00 81 1013.6
20260506145403 62 191 6.1 13.9 0.00 0.00 0.00 82 1013.5
20260506144503 62 204 6.1 17.4 0.00 0.00 0.00 82 1013.5
20260506143603 62 210 6.1 13.9 0.00 0.00 0.00 81 1013.8
20260506142918 62 205 5.2 12.2 0.00 0.00 0.00 81 1013.8
20260506142017 62 216 5.2 15.6 0.00 0.00 0.00 81 1014.0
20260506140903 62 217 6.1 12.2 0.00 0.00 0.00 82 1014.0
20260506140003 61 211 7.0 14.8 0.00 0.00 0.00 83 1014.0
20260506135403 61 213 7.0 14.8 0.00 0.00 0.00 83 1014.0
20260506134717 61 211 7.0 13.9 0.00 0.00 0.00 83 1013.9
20260506133603 61 210 6.1 12.2 0.00 0.00 0.00 83 1013.6
20260506133133 61 210 5.2 12.2 0.00 0.00 0.00 84 1013.7
20260506131803 60 216 5.2 12.2 0.00 0.00 0.00 85 1013.7
20260506131331 60 213 6.1 14.8 0.00 0.00 0.00 84 1013.9
20260506130003 60 214 6.1 13.9 0.00 0.00 0.00 85 1013.9
20260506125403 60 215 5.2 13.9 0.00 0.00 0.00 85 1013.9
20260506124503 59 210 5.2 12.2 0.00 0.00 0.00 86 1013.8
20260506123603 59 205 4.3 12.2 0.00 0.00 0.00 87 1013.9
20260506122703 58 217 4.3 12.2 0.00 0.00 0.00 88 1014.3
20260506121803 57 214 4.3 12.2 0.00 0.00 0.00 88 1014.3
20260506120903 57 217 4.3 10.4 0.00 0.00 0.00 88 1014.3
20260506120003 58 225 4.3 12.2 0.00 0.00 0.00 88 1014.4
20260506115403 58 226 4.3 12.2 0.00 0.00 0.00 88 1014.3
20260506114718 58 213 4.3 12.2 0.00 0.00 0.00 88 1014.3
20260506113603 58 224 5.2 12.2 0.00 0.00 0.00 88 1014.2
20260506112703 57 215 5.2 11.3 0.00 0.00 0.00 88 1014.1
20260506112018 57 208 4.3 9.6 0.00 0.00 0.00 89 1014.2
20260506111117 57 216 5.2 13.0 0.00 0.00 0.00 89 1014.1
20260506110003 57 228 4.3 12.2 0.00 0.00 0.00 89 1014.2
20260506105403 57 225 4.3 9.6 0.00 0.00 0.00 89 1014.1
20260506104503 57 221 4.3 15.6 0.00 0.00 0.00 89 1014.0
20260506103603 57 212 4.3 9.6 0.00 0.00 0.00 90 1014.0
20260506102703 57 222 4.3 10.4 0.00 0.00 0.00 90 1014.0
20260506101803 56 216 4.3 9.6 0.00 0.00 0.00 90 1014.3
20260506100903 56 213 5.2 12.2 0.00 0.00 0.00 90 1014.1
20260506100003 56 214 4.3 9.6 0.00 0.00 0.00 90 1014.0
20260506095833 56 214 4.3 9.6 0.00 0.00 0.00 90 1014.0
20260506094717 56 225 4.3 9.6 0.00 0.00 0.00 90 1014.2
20260506093603 56 221 5.2 12.2 0.00 0.00 0.00 90 1014.2
20260506092918 56 225 4.3 11.3 0.00 0.00 0.00 90 1014.1
20260506091803 56 226 4.3 10.4 0.00 0.00 0.00 90 1014.1
20260506090903 56 213 4.3 10.4 0.00 0.00 0.00 90 1014.2
20260506090003 56 224 4.3 12.2 0.00 0.00 0.00 90 1014.3
20260506085403 56 220 5.2 12.2 0.00 0.00 0.00 90 1014.2
20260506084717 56 221 4.3 12.2 0.00 0.00 0.00 90 1014.2
20260506083603 56 217 5.2 13.0 0.00 0.00 0.00 90 1014.3
20260506082703 56 211 4.3 12.2 0.00 0.00 0.00 90 1014.3
20260506081803 56 223 4.3 12.2 0.00 0.00 0.00 90 1014.3